Location: Navarre
(52.9016°N, 113.4144°W)
Time: 06:49:09
(UTC+00:00)

Envisat - Pass Details

Date: 01 December 2021
Orbit: 764 x 766 km, 98.2° (Epoch: 17 January)

Event Time Altitude Azimuth Distance (km) Brightness Sun altitude
Rises 14:01:21 0° 9° (N) 3,248 6.1 -11.8°
Reaches altitude 10° 14:03:54 10° 358° (N) 2,317 5.3 -11.4°
Maximum altitude 14:08:15 29° 300° (WNW) 1,382 3.8 -10.8°
Drops below altitude 10° 14:12:34 10° 241° (WSW) 2,303 5.1 -10.2°
Sets 14:15:06 0° 231° (SW) 3,225 6.0 -9.8°
